Carbondale, IL

9:45 AM CDT on June 28, 2017 (GMT -0500)
Southern Illinois

Weather History for KMDH - December, 2012

Change the Weather History Date:

Saturday, December 15, 2012

  Actual Average Record
Temperature  
Mean Temperature 52 °F -  
Max Temperature 59 °F 44 °F 74 °F (1933)
Min Temperature 46 °F 24 °F -7 °F (1914)
Degree Days  
Heating Degree Days 12    
Growing Degree Days 2 (Base 50)    
Moisture  
Dew Point 49 °F    
Average Humidity 84    
Maximum Humidity 94    
Minimum Humidity 61    
Precipitation  
Precipitation 0.10 in - - ()
Sea Level Pressure  
Sea Level Pressure 29.81 in    
Wind  
Wind Speed 15 mph (South)    
Max Wind Speed 24 mph    
Max Gust Speed 36 mph    
Visibility 8 miles    
Events Rain    
Averages and records for this station are not official NWS values.
T = Trace of Precipitation, MM = Missing Value Source: NWS Daily Summary

Daily Weather History Graph

Daily Weather History Graph

Search for Another Location

Airport or City:

Trip Planner

Search our weather history database for the weather conditions in past years. The results will help you decide how hot, cold, wet, or windy it might be!

Date:

Astronomy

Dec. 15, 2012 Rise Set
Actual Time 7:05 AM CST 4:39 PM CST
Civil Twilight 6:36 AM CST 5:08 PM CST
Nautical Twilight 6:03 AM CST 5:41 PM CST
Astronomical Twilight 5:31 AM CST 6:13 PM CST
Moon 9:00 AM CST (12/15) 7:41 PM CST (12/15)
Length of Visible Light 10h 32m
Length of Day
9h 33m
Waxing Crescent, 8% of the Moon is Illuminated
Dec 15
Waxing Crescent
Dec 19
First Quarter
Dec 28
Full
Jan 4
Last Quarter
Jan 11
New

Hourly Weather History & Observations

Time (CST) Temp. Dew Point Humidity Pressure Visibility Wind Dir Wind Speed Gust Speed Precip Events Conditions
12:52 AM 51.1 °F 37.9 °F 61% 30.01 in 10.0 mi South 11.5 mph - 0.00 in Rain Light Rain
1:52 AM 50.0 °F 39.0 °F 66% 30.01 in 10.0 mi South 10.4 mph - 0.00 in Rain Light Rain
2:52 AM 48.9 °F 41.0 °F 74% 29.99 in 8.0 mi South 9.2 mph - 0.00 in Rain Light Rain
3:52 AM 46.9 °F 43.0 °F 86% 29.97 in 10.0 mi South 9.2 mph - 0.06 in   Overcast
4:44 AM 48.2 °F 44.6 °F 87% 29.93 in 10.0 mi South 13.8 mph - 0.01 in   Overcast
4:52 AM 48.0 °F 44.1 °F 86% 29.92 in 10.0 mi SSE 12.7 mph - 0.01 in   Overcast
5:20 AM 48.2 °F 44.6 °F 87% 29.87 in 10.0 mi SSE 16.1 mph 23.0 mph N/A   Overcast
5:52 AM 48.9 °F 45.0 °F 86% 29.89 in 10.0 mi South 16.1 mph 28.8 mph N/A   Overcast
6:52 AM 48.9 °F 45.0 °F 86% 29.90 in 10.0 mi South 12.7 mph - 0.03 in Rain Light Rain
7:52 AM 50.0 °F 45.0 °F 83% 29.86 in 10.0 mi South 20.7 mph 29.9 mph 0.00 in   Overcast
8:49 AM 48.2 °F 46.4 °F 93% 29.84 in 4.0 mi South 18.4 mph 33.4 mph 0.00 in Rain Light Rain
8:52 AM 48.9 °F 46.0 °F 90% 29.84 in 4.0 mi South 18.4 mph 27.6 mph 0.00 in Rain Light Rain
9:49 AM 50.0 °F 48.2 °F 94% 29.82 in 2.5 mi South 20.7 mph 28.8 mph 0.00 in Rain Light Rain
9:52 AM 50.0 °F 48.0 °F 93% 29.82 in 2.5 mi South 20.7 mph 26.5 mph 0.00 in Rain Light Rain
9:57 AM 51.8 °F 48.2 °F 88% 29.82 in 3.0 mi South 18.4 mph 26.5 mph 0.00 in Rain Light Rain
10:09 AM 51.8 °F 48.2 °F 88% 29.82 in 4.0 mi South 20.7 mph 28.8 mph 0.00 in Rain Light Rain
10:40 AM 51.8 °F 48.2 °F 88% 29.81 in 5.0 mi South 15.0 mph - 0.00 in   Overcast
10:52 AM 52.0 °F 48.9 °F 89% 29.80 in 6.0 mi South 16.1 mph 24.2 mph 0.00 in   Overcast
11:52 AM 53.1 °F 50.0 °F 89% 29.76 in 10.0 mi South 18.4 mph 25.3 mph N/A   Overcast
12:52 PM 55.0 °F 52.0 °F 89% 29.73 in 8.0 mi SSW 24.2 mph 35.7 mph N/A   Overcast
1:06 PM 55.4 °F 51.8 °F 88% 29.72 in 9.0 mi South 21.9 mph 31.1 mph N/A   Overcast
1:47 PM 55.4 °F 51.8 °F 88% 29.71 in 10.0 mi South 20.7 mph 29.9 mph N/A   Overcast
1:52 PM 55.9 °F 52.0 °F 87% 29.71 in 10.0 mi SSW 20.7 mph 29.9 mph N/A   Overcast
2:14 PM 57.2 °F 51.8 °F 82% 29.71 in 10.0 mi SSW 16.1 mph 26.5 mph N/A   Overcast
2:52 PM 57.9 °F 52.0 °F 81% 29.71 in 10.0 mi SSW 21.9 mph 31.1 mph N/A   Overcast
3:52 PM 57.9 °F 52.0 °F 81% 29.71 in 10.0 mi SSW 19.6 mph 24.2 mph N/A   Overcast
4:52 PM 59.0 °F 52.0 °F 78% 29.72 in 10.0 mi SSW 23.0 mph 35.7 mph N/A   Overcast
5:52 PM 57.9 °F 53.1 °F 84% 29.73 in 10.0 mi SSW 13.8 mph - N/A   Overcast
6:52 PM 59.0 °F 53.1 °F 81% 29.74 in 10.0 mi SSW 16.1 mph 21.9 mph N/A   Overcast
7:52 PM 59.0 °F 53.1 °F 81% 29.76 in 10.0 mi SW 10.4 mph 24.2 mph N/A   Overcast
8:52 PM 59.0 °F 53.1 °F 81% 29.76 in 10.0 mi SSW 13.8 mph 23.0 mph N/A   Mostly Cloudy
9:52 PM 59.0 °F 54.0 °F 83% 29.76 in 10.0 mi SSW 15.0 mph - N/A   Mostly Cloudy
10:52 PM 59.0 °F 54.0 °F 83% 29.75 in 10.0 mi SSW 15.0 mph 23.0 mph N/A   Scattered Clouds
11:52 PM 57.9 °F 54.0 °F 87% 29.75 in 10.0 mi SSW 9.2 mph - N/A   Clear